Location: La Brionne
(46.1728°N, 1.7849°E)
Time: 21:34:39
(UTC+00:00)

Cosmos 1605 Rocket - Pass Details

Date: 16 June 2021
Orbit: 944 x 1006 km, 82.9° (Epoch: 02 August)

Event Time Altitude Azimuth Distance (km) Brightness Sun altitude
Rises 20:30:02 0° 350° (N) 3,747 8.0 -6.6°
Reaches altitude 10° 20:32:34 10° 350° (N) 2,793 7.3 -6.9°
Maximum altitude 20:39:01 85° 263° (W) 1,013 4.2 -7.7°
Drops below altitude 10° 20:45:22 10° 176° (S) 2,754 5.9 -8.4°
Enters shadow 20:47:19 - 176° (S) 3,485 6.4 -8.7°
